Regional Weather Roundup
Issued by NWS Charleston, SC

Current Version | Previous Version | Text Only | Print | Product List | Glossary Off
Versions: 1 2 3 4 5 6 7 8 9 10 11 12 13 14 15 16 17 18 19 20 21 22 23 24 25 26 27 28 29 30 31 32 33 34 35 36 37 38 39 40 41 42 43 44 45 46 47 48 49 50

302
ASUS42 KCHS 221512
RWRCHS

REGIONAL WEATHER ROUNDUP
NATIONAL WEATHER SERVICE CHARLESTON SC
1100 AM EDT MON MAY 22 2017

NOTE: "FAIR" INDICATES FEW OR NO CLOUDS BELOW 12,000 FEET WITH NO
SIGNIFICANT WEATHER AND/OR OBSTRUCTIONS TO VISIBILITY.

NOT ALL STATIONS ARE QUALITY CONTROLLED. USE DATA WITH CAUTION...
ESPECIALLY DEWPOINT OBSERVATIONS.

SCZ027-030-031-034>040-042>050-221600-
...SOUTHEAST SOUTH CAROLINA...

CITY           SKY/WX    TMP DP  RH WIND       PRES   REMARKS
N CHARLESTON   PTSUNNY   81  70  69 SW9       30.08R
WATERFRONT PRK   N/A     78  73  84 VRB3      30.06S
JOHNS ISLAND   PTSUNNY   81  73  78 SW8       30.08S
PINOPOLIS      NOT AVBL
MONCKS CORNER  CLOUDY    77  72  83 SW7       30.08S
SUMMERVILLE    CLOUDY    77  72  83 CALM      30.08S
BEAUFORT MCAS  PTSUNNY   82  72  71 SW6       30.07S
BEAUFORT ARPT  FAIR      79  72  78 SW5       30.07S
HILTON HEAD IS MOSUNNY   81  73  78 S6        30.08S
WALTERBORO     MOSUNNY   81  70  69 W6        30.08S
ALLENDALE      PTSUNNY   81  70  69 CALM      30.06F

...SOUTHERN MIDLANDS AND PEE DEE...

CITY           SKY/WX    TMP DP  RH WIND       PRES   REMARKS
GEORGETOWN     PTSUNNY   79  72  78 SW7       30.08S
KINGSTREE      FAIR      79  70  73 SW6       30.07S
ORANGEBURG     PTSUNNY   79  71  76 SW3       30.07F
BARNWELL       FAIR      84  72  65 CALM      30.07F
AIKEN          FAIR      79  68  69 SW6       30.10F
MANNING        PTSUNNY   79  72  78 SW7       30.07F
COLUMBIA       MOSUNNY   80  71  74 S5        30.05F
SUMTER         PTSUNNY   79  71  76 SW5       30.05S
FLORENCE       PTSUNNY   78  73  84 SW8       30.07S
MYRTLE BEACH   CLOUDY    79  72  78 SW10      30.09S
N MYRTLE BEACH CLOUDY    80  71  74 SW16      30.07S

$$

GAZ063-065-086>088-099>101-113>116-118-119-134>141-150-221600-
...SOUTHEAST GEORGIA...

CITY           SKY/WX    TMP DP  RH WIND       PRES   REMARKS
SAVANNAH ARPT  PTSUNNY   83  69  62 VRB3      30.07F
HUNTER AAF     CLOUDY    83  75  78 SW8       30.05S HX  90
FORT STEWART   MOSUNNY   84  70  62 SW8       30.05S
STATESBORO     MOSUNNY   82  70  67 CALM      30.07S
SYLVANIA       SUNNY     84  71  64 W5        30.08F
CLAXTON        PTSUNNY   81  81 100 W5        30.07F HX  92

...CSRA...CENTRAL AND FAR SOUTHEAST GEORGIA...

CITY           SKY/WX    TMP DP  RH WIND       PRES   REMARKS
THOMSON        MOSUNNY   82  69  63 SE5       30.09F
AUGUSTA-BUSH   MOSUNNY   84  70  62 SW3       30.05F
AUGUSTA-DANIEL MOSUNNY   83  66  56 SW6       30.07F
SWAINSBORO     PTSUNNY   79  70  73 CALM      30.08F
VIDALIA        CLOUDY    79  72  78 CALM      30.07F
EASTMAN        CLOUDY    79  63  57 CALM      30.08F
HAZLEHURST     PTSUNNY   82  73  76 CALM      30.06F
ALMA           MOSUNNY   82  70  66 W6        30.07F
WAYCROSS       SUNNY     84  77  78 CALM      30.07F HX  94
JESUP          PTSUNNY   82  68  61 S5        30.07F
BAXLEY         PTSUNNY   81  77  89 SW6       30.07S
BRUNSWICK      MOSUNNY   82  73  74 SW7       30.08S
SAINT SIMONS   CLOUDY    82  72  71 W6        30.07S

$$

SCZ027-028-034-036>038-045-046-048>050-GAZ119-141-221600-
...LAKE AND SUPPLEMENTAL COASTAL OBSERVATIONS...

STATION/POSITION TIME  TEMP    WIND        PRES    WAVE   SWELL
                       AIR SEA DIR/SP/G            HT/PER HT/PER/DIR
                 (UTC) (F)     (DEG/KT/KT) (MB)    (FT/S) (FT/S/D)
WINYAH BAY       NOT AVBL
LAKE MURRAY      1420   79     170/  2/  3 1017.6
ACE BASIN NERRS  NOT AVBL
FORT PULASKI     1448   80 79  240/  7/ 10 1018.4F
SAPELO ISLAND    1400   80     220/  7     1019.0

$$

ANZ835-935-AMZ111-154-330-350-352-354-370-450-454-472-221600-
...C-MAN AND BUOY OBSERVATIONS...

STATION/POSITION TIME  TEMP    WIND        PRES    WAVE   SWELL
                       AIR SEA DIR/SP/G            HT/PER HT/PER/DIR
                 (UTC) (F)     (DEG/KT/KT) (MB)    (FT/S) (FT/S/D)
BUOY 41004       1450   77 77  190/ 10/ 14 1018.5S   4/10   3/ 80/10
BUOY 41008       1350   78 78  200/  8/  8 1018.5    2/ 5   2/130/ 5
FOLLY BEACH CMAN 1400   77     210/ 10/ 11 1018.8F
CAPERS NEARSHORE 1408   80 76  210/ 10/ 16 1018.2F
FRIPP NEARSHORE  1408   77 78  210/  8/ 10 1018.2S


STATION/POSITION TIME  TEMP    WIND        PRES    WAVE   SWELL
                       AIR SEA DIR/SP/G            HT/PER HT/PER/DIR
                 (UTC) (F)     (DEG/KT/KT) (MB)    (FT/S) (FT/S/D)
5E ST. MARYS GA  1430      79                N/A     2/ 4
FRYING PAN BUOY  1450   77 77  220/ 12/ 16 1018.6F   3/ 9   2/ 70/ 9
BUOY 41025       1450   75 78  170/  6/  8 1019.1F   4/ 8   3/ 60/ 8
CAPE LOOKOUT NC  1400   76     220/  7/  8 1018.6F
BUOY 41002       1450   75 77  240/  6/  8 1020.2F   3/ 9   3/ 20/ 9
BUOY 41010       1450   78 79  150/  6/  8 1019.8S   2/ 8   2/ 70/ 8
ST AUGUSTINE FL  1500   78 80  130/  7/  7 1019.1F


$$




USA.gov is the U.S. government's official web portal to all federal, state and local government web resources and services.